www.pogodaiklimat.ru

АРХИВ ПОГОДЫ в Детройте

Время (UTC), дата Ветер
(напр.,м/с)
 
Видим.   Явления Облачность Т
(С)
Тd
(С)
f
(%)
Тe
(С)
Тes
(С)
Комфортность

P
(гПа)

Po
(гПа)
Тmin
(С)
Tmax
(С)
R
(мм)
SD
(см)
20:01 16.07 Ю  11 км  слабый дождь  10/8 750 м
[средняя] 
+25.6  +22.2  82  +33  +33  очень
душно 
  990.7         
20:53 16.07 Ю  14 км    8/8 750 м
[средняя] 
+27.2  +22.2  74  +35  +37  очень
душно 
1012.5  989.7         
21:53 16.07 Ю  16 км    8/5 750 м
[средняя] 
+28.3  +22.2  70  +37  +38  очень
душно 
1012.5  990.0         
22:26 16.07 Ю  14 км  гроза  10/8 1350 м
[средняя] 
+27.8  +22.2  72  +36  +36  очень
душно 
  990.3         
22:53 16.07 нст  16 км  гроза со слабым дождем  10/8 1350 м
[средняя] 
+22.8  +19.4  81  +29  +29  очень
душно 
1013.6  990.7  +22.8  +29.4     
23:43 16.07 В  10 км  слабый дождь, дымка  10/8 1500 м
[средняя] 
+22.8  +20.6  87  +30  +30  очень
душно 
  990.3         
23:53 16.07   13 км  слабый дождь  10/8 1500 м
[средняя] 
+22.8  +20.6  87  +30  +30  очень
душно 
1012.9  990.3         
00:53 17.07 СВ  13 км  слабый дождь  10/8 750 м
[средняя] 
+22.8  +20.6  87  +30  +30  очень
душно 
1012.9  990.3         
01:02 17.07   13 км    10/8 600 м
[средняя] 
+22.8  +21.1  90  +30  +30  очень
душно 
  990.3         
01:53 17.07 Ю  16 км    10/8 600 м
[средняя] 
+22.8  +21.1  90  +30  +30  очень
душно 
1013.0  990.3      0.5   
02:53 17.07 ЮЗ  16 км    10/2 1650 м
[средняя] 
+23.3  +21.1  87  +31  +31  очень
душно 
1012.4  989.7         
03:46 17.07 Ю  16 км    10/8 240 м
[средняя] 
+23.3  +21.1  87  +31  +31  очень
душно 
  990.0         
03:53 17.07 ЮЗ  16 км    10/8 240 м
[средняя] 
+23.3  +21.1  87  +31  +31  очень
душно 
1012.6  990.0         
04:38 17.07 Ю  14 км    10/10 180 м  +23.3  +21.1  87  +31  +31  очень
душно 
  989.7         
04:53 17.07 ЮЗ  11 км  слабый дождь  10/10 180 м  +23.3  +21.1  87  +31  +31  очень
душно 
1012.2  989.7  +22.2  +23.3  0.5   
05:39 17.07 Ю  13 км    10/8 270 м
[средняя] 
+23.3  +21.1  87  +31  +31  очень
душно 
  989.3         
05:53 17.07 З  13 км    10/8 360 м
[средняя] 
+23.3  +21.1  87  +31  +31  очень
душно 
1012.0  989.3         
06:53 17.07   13 км    10/8 360 м
[средняя] 
+23.3  +21.1  87  +31  +31  очень
душно 
1011.5  989.0         
07:21 17.07 ЮВ  8 км  дымка  10/8 240 м
[средняя] 
+22.8  +21.7  94  +31  +31  очень
душно 
  989.0         
07:53 17.07   8 км  дымка  10/10 240 м  +22.8  +21.7  94  +31  +31  очень
душно 
1011.6  989.0         
08:18 17.07 ЮЗ  10 км  дымка  10/10 240 м  +23.3  +21.1  87  +31  +31  очень
душно 
  989.0         
08:53 17.07 Ю  8 км  слабый дождь, дымка  10/10 240 м  +23.3  +21.7  91  +32  +32  очень
душно 
1011.5  988.7         
09:27 17.07 Ю  11 км    10/10 180 м  +23.3  +21.7  91  +32  +32  очень
душно 
  988.7         
09:47 17.07 ЮВ  11 км    10/10 240 м  +23.0  +22.0  94  +31  +31  очень
душно 
  989.0         
09:53 17.07 ЮВ  11 км    10/10 240 м  +23.3  +21.7  91  +32  +32  очень
душно 
1011.6  989.0         
10:53 17.07   13 км    10/8 360 м
[средняя] 
+23.9  +21.7  88  +31  +31  очень
душно 
1011.8  989.0  +22.8  +23.9     
11:14 17.07   3 км  слабый дождь  10/10 480 м  +24.4  +21.7  85  +31  +31  очень
душно 
  989.3         
11:22 17.07 СЗ  3 км  дождь  10/10 510 м  +23.9  +21.7  88  +31  +31  очень
душно 
  989.3         
11:35 17.07   6 км  слабый дождь  10/10 330 м  +23.3  +22.2  94  +32  +32  очень
душно 
  989.0         
11:46 17.07 С  11 км  слабый дождь  10/8 360 м
[средняя] 
+23.9  +22.2  90  +31  +31  очень
душно 
  989.3         
11:53 17.07 С  13 км    10/8 240 м
[средняя] 
+23.9  +22.2  90  +31  +31  очень
душно 
1012.1  989.3         
12:53 17.07 С  11 км    10/8 360 м
[средняя] 
+25.6  +22.8  85  +34  +34  очень
душно 
1012.2  989.7         
13:53 17.07 В  13 км    8/8 450 м  +26.1  +21.7  77  +34  +35  очень
душно 
1011.8  989.0      2.3   
14:53 17.07 СВ  14 км    8/8 750 м  +28.3  +22.2  70  +37  +39  очень
душно 
1011.9  989.3         
15:53 17.07 С  16 км    8/8 750 м  +30.0  +21.7  61  +38  +40  очень
душно 
1012.5  990.0         
16:09 17.07 СЗ  16 км    8/8 750 м  +30.0  +22.2  63  +39  +42  очень
душно 
  989.7         
16:53 17.07 СВ  16 км    8/8 900 м  +29.4  +21.7  63  +37  +40  очень
душно 
1012.0  989.3  +23.3  +30.0  2.3   
17:53 17.07 С  16 км    8/5 1050 м
[средняя] 
+31.7  +21.1  53  +39  +42  очень
душно 
1012.0  989.3         
18:53 17.07 СВ  16 км    8/8 1200 м  +31.7  +21.7  55  +40  +42  очень
душно 
1011.4  988.7         
19:53 17.07 С  16 км    8/8 1200 м  +31.7  +20.0  50  +38  +40  очень
душно 
1011.3  988.7         
20:53 17.07 С  16 км    8/8 1350 м  +31.7  +19.4  48  +37  +38  очень
душно 
1011.2  988.7         
21:53 17.07 С  16 км    8/8 1200 м  +30.6  +20.0  53  +37  +38  очень
душно 
1011.5  989.0         
22:53 17.07 С  16 км    5/5 1350 м  +30.0  +20.0  55  +36  +37  очень
душно 
1012.0  989.3  +29.4  +32.8     
23:53 17.07 В  16 км    5/5 1500 м
[верхняя] 
+27.8  +19.4  60  +33  +34  очень
душно 
1012.7  990.0         
00:53 18.07 В  16 км    5/5 1350 м
[верхняя] 
+26.1  +17.2  58  +30  +30  душно  1013.1  990.3         
01:53 18.07 В  16 км    8/2 1350 м
[верхняя] 
+24.4  +16.7  62  +28  +28  душно  1013.5  990.7         
02:53 18.07   16 км    8/0 7500 м
[верхняя] 
+23.3  +16.7  66  +28  +28  душно  1013.4  990.7         
03:53 18.07 В  16 км    8/0 7500 м
[верхняя] 
+22.8  +16.7  68  +27  +27  душно  1013.7  991.0         

 

Местоположение метеостанции Detroit Metropolitan Wayne County Airport: широта 42.2314 долгота -83.3308 высота над уровнем моря 194 м.

В архиве по умолчанию представлена погода в Детройте за последние 1-2 суток. Обновление информации о фактической погоде в базе происходит ежечасно! Архивные данные за месяц целиком и за предыдущие месяцы Вы можете получить, выбрав интересующий диапазон дат из раскрывающегося списка и нажав кнопку "Ввод!".

Внимание! Архив погоды МЕТАР в базе сайта в настоящее время начинается c 1 января 2011 г. Нет смысла пытаться выбрать более раннюю дату.

Внимание! Время в таблицах - всемирное. Для получения местного времени необходимо прибавить поправку, которая в Детройте равна -5 ч.

Ветер - указаны скорость ветра в м/с и направление, откуда дует ветер: С - северный, СВ - северо-восточный, В - восточный, ЮВ - юго-восточный, Ю - южный, ЮЗ - юго-западный, З - западный, СЗ - северо-западный.
Видимость - горизонтальная дальность видимости в метрах или километрах. При видимости от 1 до 10 км при отсутствии осадков обычно наблюдается дымка, при ухудшении видимости до 1 км и менее - туман. В сухую погоду видимость может ухудшаться дымом, пылью или мглою.
Атмосферные явления - указаны явления, наблюдавшиеся в указанный момент времени.
Облачность - указаны через наклонную черту верхняя и нижняя облачность в баллах и высота нижней границы облаков в метрах. Внимание: облачность, как и прочие метеорологические величины в США измеряются автоматическими метеостанциями. Указанные значения в баллах носят условный характер и показывают процент времени, в течение которого, в среднем, лазерный луч высотомера отражался от облаков обратно.
T - Температура воздуха - температура, измеренная на высоте 2 м над землей.
Td - Температура точки росы - температура, при понижении до которой содержащийся в воздухе водяной пар достигнет насыщения.
f - Относительная влажность воздуха - влажноcть воздуха, измеренная на высоте 2 м над землей.
Te - Эффективная температура - температура, которую ощущает одетый по сезону человек в тени. Характеристика душности погоды. При расчете учитывается влияние влажности воздуха и скорости ветра на теплоощущения человека.
Tes - Эффективная температура на солнце - температура, которую ощущает человек, с поправкой на солнечный нагрев. Характеристика знойности погоды. Зависит от высоты солнца над горизонтом, облачности и скорости ветра. Ночью, в пасмурную погоду, а также при ветре 12 м/с и более поправка равна нулю.
P - Атмосферное давление - приведенное к уровню моря атмосферное давление.
Po - Атмосферное давление - измеренное на уровне метеостанции атмосферное давление.
Tmin - Минимальная температура - минимум температуры воздуха на высоте 2 м над землей.
Tmax - Максимальная температура - максимум температуры воздуха на высоте 2 м над землей.
R - Количество осадков - Количество выпавших осадков за 3 или 6 часов, мм.
SD - Снежный покров - Высота снежного покрова, см.